Location: Arrodets-la-Barthe
(43.0306°N, 0.2829°E)
Time: 13:00:09
(UTC+00:00)

ESTCUBE 1 - Pass Details

Date: 09 April 2023
Orbit: 640 x 654 km, 97.9° (Epoch: 29 May)

Event Time Altitude Azimuth Distance (km) Brightness Sun altitude
Exits shadow 22:45:45 17° 312° (NW) 1,636 ? -36.4°
Drops below altitude 10° 22:47:07 10° 324° (NW) 2,071 ? -36.5°
Sets 22:49:37 0° 336° (NNW) 2,985 ? -36.7°
